Location: Makakahi
(40.6833°S, 175.6000°E)
Time: 23:52:20
(UTC+00:00)

FENGYUN 1C DEB - Pass Details

Date: 05 December 2024
Orbit: 812 x 877 km, 98.8° (Epoch: 19 January)

Event Time Altitude Azimuth Distance (km) Brightness Sun altitude
Rises 09:00:57 0° 166° (SSE) 3,376 ? -13.3°
Reaches altitude 10° 09:03:19 10° 165° (SSE) 2,440 ? -13.6°
Maximum altitude 09:08:44 82° 76° (ENE) 844 ? -14.3°
Drops below altitude 10° 09:14:09 10° 348° (NNW) 2,440 ? -15.0°
Enters shadow 09:15:11 - 347° (NNW) 2,853 ? -15.1°
